status,avgMeasuredTime,avgSpeed,extID,medianMeasuredTime,TIMESTAMP,vehicleCount,_id,REPORT_ID
OK,145,23,788,145,2014-08-01T07:55:00,1,20746512,204113
OK,145,23,788,145,2014-08-01T08:00:00,0,20746843,204113
OK,145,23,788,145,2014-08-01T08:05:00,0,20747292,204113
OK,145,23,788,145,2014-08-01T08:10:00,0,20747665,204113
OK,145,23,788,145,2014-08-01T08:15:00,0,20748114,204113
OK,145,23,788,145,2014-08-01T08:20:00,0,20748563,204113
OK,145,23,788,145,2014-08-01T08:25:00,0,20749012,204113
OK,145,23,788,145,2014-08-01T08:30:00,0,20749461,204113
OK,180,18,788,180,2014-08-01T08:35:00,1,20749910,204113
OK,180,18,788,180,2014-08-01T08:40:00,1,20750359,204113
OK,180,18,788,180,2014-08-01T08:45:00,0,20750808,204113
OK,99,34,788,99,2014-08-01T08:50:00,1,20751257,204113
OK,99,34,788,99,2014-08-01T08:55:00,1,20751706,204113
OK,167,20,788,167,2014-08-01T09:00:00,3,20752155,204113
OK,167,20,788,167,2014-08-01T09:05:00,3,20752604,204113
OK,164,20,788,164,2014-08-01T09:10:00,1,20753053,204113
OK,164,20,788,164,2014-08-01T09:15:00,1,20753502,204113
OK,90,37,788,90,2014-08-01T09:20:00,2,20753951,204113
OK,118,28,788,118,2014-08-01T09:25:00,4,20754400,204113
OK,133,25,788,133,2014-08-01T09:30:00,3,20754849,204113
OK,149,22,788,149,2014-08-01T09:35:00,0,20755298,204113
OK,99,34,788,99,2014-08-01T09:40:00,1,20755747,204113
OK,154,22,788,154,2014-08-01T09:45:00,2,20756196,204113
OK,219,15,788,219,2014-08-01T09:50:00,2,20756645,204113
OK,228,14,788,228,2014-08-01T09:55:00,0,20757094,204113
OK,161,21,788,161,2014-08-01T10:00:00,2,20757543,204113
OK,146,23,788,146,2014-08-01T10:05:00,2,20757992,204113
OK,133,25,788,133,2014-08-01T10:10:00,1,20758441,204113
OK,133,25,788,133,2014-08-01T10:15:00,0,20758890,204113
OK,133,25,788,133,2014-08-01T10:20:00,0,20759339,204113
OK,98,34,788,98,2014-08-01T10:25:00,1,20759788,204113
OK,98,34,788,98,2014-08-01T10:30:00,1,20760237,204113
OK,98,34,788,98,2014-08-01T10:35:00,0,20760686,204113
OK,191,17,788,191,2014-08-01T10:40:00,1,20761135,204113
OK,239,14,788,239,2014-08-01T10:45:00,3,20761584,204113
OK,243,13,788,243,2014-08-01T10:50:00,3,20762033,204113
OK,190,17,788,190,2014-08-01T10:55:00,2,20762482,204113
OK,122,27,788,122,2014-08-01T11:00:00,1,20762931,204113
OK,124,27,788,124,2014-08-01T11:05:00,1,20763380,204113
OK,149,22,788,149,2014-08-01T11:10:00,2,20763829,204113
OK,175,19,788,175,2014-08-01T11:15:00,3,20764277,204113
OK,131,25,788,131,2014-08-01T11:20:00,4,20764726,204113
OK,109,31,788,109,2014-08-01T11:25:00,2,20765175,204113
OK,109,31,788,109,2014-08-01T11:30:00,0,20765624,204113
OK,122,27,788,122,2014-08-01T11:35:00,1,20766073,204113
OK,122,27,788,122,2014-08-01T11:40:00,1,20766522,204113
OK,122,27,788,122,2014-08-01T11:45:00,0,20766971,204113
OK,156,21,788,156,2014-08-01T11:50:00,3,20767420,204113
OK,156,21,788,156,2014-08-01T11:55:00,3,20767869,204113
OK,146,23,788,146,2014-08-01T12:00:00,1,20768318,204113
OK,146,23,788,146,2014-08-01T12:05:00,0,20768767,204113
OK,146,23,788,146,2014-08-01T12:10:00,0,20769216,204113
OK,152,22,788,152,2014-08-01T12:15:00,1,20769665,204113
OK,152,22,788,152,2014-08-01T12:20:00,1,20770114,204113
OK,133,25,788,133,2014-08-01T12:25:00,2,20770563,204113
OK,178,19,788,178,2014-08-01T12:30:00,1,20771012,204113
OK,178,19,788,178,2014-08-01T12:35:00,1,20771461,204113
OK,203,16,788,203,2014-08-01T12:40:00,1,20771910,204113
OK,203,16,788,203,2014-08-01T12:45:00,1,20772359,204113
OK,203,16,788,203,2014-08-01T12:50:00,0,20772808,204113
OK,203,16,788,203,2014-08-01T12:55:00,0,20773257,204113
OK,186,18,788,186,2014-08-01T13:00:00,1,20773706,204113
OK,186,18,788,186,2014-08-01T13:05:00,1,20774155,204113
OK,156,21,788,156,2014-08-01T13:10:00,1,20774604,204113
OK,171,19,788,171,2014-08-01T13:15:00,2,20775053,204113
OK,149,22,788,149,2014-08-01T13:20:00,2,20775502,204113
OK,111,30,788,111,2014-08-01T13:25:00,1,20775951,204113
OK,201,16,788,201,2014-08-01T13:30:00,1,20776400,204113
OK,202,16,788,202,2014-08-01T13:35:00,4,20776849,204113
OK,194,17,788,194,2014-08-01T13:40:00,4,20777298,204113
OK,151,22,788,151,2014-08-01T13:45:00,2,20777747,204113
OK,188,18,788,188,2014-08-01T13:50:00,2,20778196,204113
OK,259,13,788,259,2014-08-01T13:55:00,1,20778645,204113
OK,259,13,788,259,2014-08-01T14:00:00,0,20779094,204113
OK,140,24,788,140,2014-08-01T14:05:00,1,20779543,204113
OK,140,24,788,140,2014-08-01T14:10:00,1,20779992,204113
OK,140,24,788,140,2014-08-01T14:15:00,3,20780441,204113
OK,135,25,788,135,2014-08-01T14:20:00,4,20780890,204113
OK,131,25,788,131,2014-08-01T14:25:00,0,20781339,204113
OK,131,25,788,131,2014-08-01T14:30:00,0,20781788,204113
OK,131,25,788,131,2014-08-01T14:35:00,0,20782237,204113
OK,454,7,788,454,2014-08-01T14:40:00,1,20782686,204113
OK,131,25,788,131,2014-08-01T14:45:00,0,20783135,204113
OK,131,25,788,131,2014-08-01T14:50:00,0,20783584,204113
OK,138,24,788,138,2014-08-01T14:55:00,2,20784033,204113
OK,172,19,788,172,2014-08-01T15:00:00,1,20784482,204113
OK,155,21,788,155,2014-08-01T15:05:00,2,20784931,204113
OK,139,24,788,139,2014-08-01T15:10:00,3,20785380,204113
OK,122,27,788,122,2014-08-01T15:15:00,3,20785829,204113
OK,155,21,788,155,2014-08-01T15:20:00,2,20786278,204113
OK,188,18,788,188,2014-08-01T15:25:00,1,20786727,204113
OK,264,12,788,264,2014-08-01T15:30:00,1,20787176,204113
OK,240,14,788,240,2014-08-01T15:35:00,2,20787625,204113
OK,217,15,788,217,2014-08-01T15:40:00,1,20788074,204113
OK,124,27,788,124,2014-08-01T15:45:00,1,20788523,204113
OK,124,27,788,124,2014-08-01T15:50:00,0,20788972,204113
OK,117,29,788,117,2014-08-01T15:55:00,2,20789421,204113
OK,117,29,788,117,2014-08-01T16:00:00,2,20789870,204113
OK,92,36,788,92,2014-08-01T16:05:00,0,20790319,204113
OK,129,26,788,129,2014-08-01T16:10:00,3,20790768,204113
OK,138,24,788,138,2014-08-01T16:15:00,2,20791217,204113
OK,147,23,788,147,2014-08-01T16:20:00,0,20791666,204113
OK,71,47,788,71,2014-08-01T16:25:00,1,20792115,204113
OK,119,28,788,119,2014-08-01T16:30:00,3,20792564,204113
OK,172,19,788,172,2014-08-01T16:35:00,3,20793013,204113
OK,172,19,788,172,2014-08-01T16:40:00,0,20793462,204113
OK,172,19,788,172,2014-08-01T16:45:00,0,20793911,204113
OK,202,16,788,202,2014-08-01T16:50:00,1,20794360,204113
OK,202,16,788,202,2014-08-01T16:55:00,1,20794809,204113
OK,202,16,788,202,2014-08-01T17:00:00,0,20795258,204113
OK,202,16,788,202,2014-08-01T17:05:00,0,20795707,204113
OK,202,16,788,202,2014-08-01T17:10:00,0,20796156,204113
OK,202,16,788,202,2014-08-01T17:15:00,0,20796605,204113
OK,202,16,788,202,2014-08-01T17:20:00,0,20797054,204113
OK,166,20,788,166,2014-08-01T17:25:00,2,20797503,204113
OK,161,21,788,161,2014-08-01T17:30:00,2,20797952,204113
OK,217,15,788,217,2014-08-01T17:35:00,2,20798401,204113
OK,160,21,788,160,2014-08-01T17:40:00,1,20798850,204113
OK,142,23,788,142,2014-08-01T17:45:00,2,20799299,204113
OK,143,23,788,143,2014-08-01T17:50:00,2,20799748,204113
OK,139,24,788,139,2014-08-01T17:55:00,2,20800197,204113
OK,151,22,788,151,2014-08-01T18:00:00,3,20800646,204113
OK,151,22,788,151,2014-08-01T18:05:00,1,20801095,204113
OK,120,28,788,120,2014-08-01T18:10:00,1,20801544,204113
OK,120,28,788,120,2014-08-01T18:15:00,0,20801993,204113
OK,120,28,788,120,2014-08-01T18:20:00,0,20802442,204113
OK,120,28,788,120,2014-08-01T18:25:00,0,20802891,204113
OK,156,21,788,156,2014-08-01T18:30:00,1,20803340,204113
OK,156,21,788,156,2014-08-01T18:35:00,1,20803789,204113
OK,156,21,788,156,2014-08-01T18:40:00,0,20804238,204113
OK,156,21,788,156,2014-08-01T18:45:00,0,20804687,204113
OK,156,21,788,156,2014-08-01T18:50:00,0,20805136,204113
OK,156,21,788,156,2014-08-01T18:55:00,0,20805585,204113
OK,156,21,788,156,2014-08-01T19:00:00,0,20806034,204113
OK,156,21,788,156,2014-08-01T19:05:00,0,20806483,204113
OK,197,17,788,197,2014-08-01T19:10:00,1,20806932,204113
OK,197,17,788,197,2014-08-01T19:15:00,1,20807381,204113
OK,197,17,788,197,2014-08-01T19:20:00,0,20807830,204113
OK,208,16,788,208,2014-08-01T19:25:00,2,20808279,204113
OK,210,16,788,210,2014-08-01T19:30:00,0,20808728,204113
OK,210,16,788,210,2014-08-01T19:35:00,0,20809177,204113
OK,210,16,788,210,2014-08-01T19:40:00,0,20809626,204113
OK,241,14,788,241,2014-08-01T19:45:00,1,20810075,204113
OK,241,14,788,241,2014-08-01T19:50:00,1,20810524,204113
OK,162,20,788,162,2014-08-01T19:55:00,1,20810973,204113
OK,146,23,788,146,2014-08-01T21:20:00,3,20814759,204113
OK,107,31,788,107,2014-08-01T22:00:00,0,20816702,204113
OK,107,31,788,107,2014-08-01T22:05:00,0,20817151,204113
OK,107,31,788,107,2014-08-01T22:10:00,0,20817473,204113
OK,107,31,788,107,2014-08-01T22:15:00,0,20817902,204113
OK,107,31,788,107,2014-08-01T22:20:00,0,20818192,204113
OK,107,31,788,107,2014-08-01T22:25:00,0,20818508,204113
OK,107,31,788,107,2014-08-01T23:45:00,0,20822250,204113
OK,107,31,788,107,2014-08-02T00:00:00,0,20823141,204113
OK,107,31,788,107,2014-08-02T00:05:00,0,20823590,204113
OK,107,31,788,107,2014-08-02T00:10:00,0,20824039,204113
OK,107,31,788,107,2014-08-02T00:15:00,0,20824488,204113
OK,107,31,788,107,2014-08-02T00:20:00,0,20824937,204113
OK,107,31,788,107,2014-08-02T00:25:00,0,20825386,204113
OK,107,31,788,107,2014-08-02T00:30:00,0,20825835,204113
OK,107,31,788,107,2014-08-02T00:35:00,0,20826284,204113
OK,107,31,788,107,2014-08-02T00:40:00,0,20826733,204113
OK,107,31,788,107,2014-08-02T00:45:00,0,20827182,204113
OK,107,31,788,107,2014-08-02T00:50:00,0,20827631,204113
OK,107,31,788,107,2014-08-02T00:55:00,0,20828080,204113
OK,107,31,788,107,2014-08-02T01:00:00,0,20828529,204113
OK,107,31,788,107,2014-08-02T01:05:00,0,20828978,204113
OK,107,31,788,107,2014-08-02T01:10:00,0,20829427,204113
OK,107,31,788,107,2014-08-02T01:15:00,0,20829876,204113
OK,107,31,788,107,2014-08-02T01:20:00,0,20830325,204113
OK,107,31,788,107,2014-08-02T01:25:00,0,20830774,204113
OK,107,31,788,107,2014-08-02T01:30:00,0,20831223,204113
OK,107,31,788,107,2014-08-02T01:35:00,0,20831672,204113
OK,107,31,788,107,2014-08-02T01:40:00,0,20832121,204113
OK,107,31,788,107,2014-08-02T01:45:00,0,20832570,204113
OK,107,31,788,107,2014-08-02T01:50:00,0,20833019,204113
OK,107,31,788,107,2014-08-02T01:55:00,0,20833468,204113
OK,107,31,788,107,2014-08-02T02:00:00,0,20833917,204113
OK,107,31,788,107,2014-08-02T02:05:00,0,20834366,204113
OK,107,31,788,107,2014-08-02T02:10:00,0,20834815,204113
OK,107,31,788,107,2014-08-02T02:15:00,0,20835264,204113
OK,107,31,788,107,2014-08-02T02:20:00,0,20835713,204113
OK,107,31,788,107,2014-08-02T02:25:00,0,20836162,204113
OK,107,31,788,107,2014-08-02T02:30:00,0,20836611,204113
OK,107,31,788,107,2014-08-02T02:35:00,0,20837060,204113
OK,107,31,788,107,2014-08-02T02:40:00,0,20837509,204113
OK,107,31,788,107,2014-08-02T02:45:00,0,20837958,204113
OK,107,31,788,107,2014-08-02T02:50:00,0,20838407,204113
OK,107,31,788,107,2014-08-02T02:55:00,0,20838856,204113
OK,107,31,788,107,2014-08-02T03:00:00,0,20839305,204113
OK,107,31,788,107,2014-08-02T03:05:00,0,20839754,204113
OK,107,31,788,107,2014-08-02T03:10:00,0,20840203,204113
OK,107,31,788,107,2014-08-02T03:15:00,0,20840652,204113
OK,107,31,788,107,2014-08-02T03:20:00,0,20841101,204113
OK,134,25,788,134,2014-08-02T03:25:00,1,20841550,204113
OK,134,25,788,134,2014-08-02T03:30:00,1,20841999,204113
OK,134,25,788,134,2014-08-02T03:35:00,0,20842448,204113
OK,134,25,788,134,2014-08-02T03:40:00,0,20842897,204113
OK,134,25,788,134,2014-08-02T03:45:00,0,20843346,204113
OK,134,25,788,134,2014-08-02T03:50:00,0,20843795,204113
OK,134,25,788,134,2014-08-02T03:55:00,0,20844244,204113
OK,134,25,788,134,2014-08-02T04:10:00,0,20845148,204113
OK,134,25,788,134,2014-08-02T04:15:00,0,20845334,204113
OK,134,25,788,134,2014-08-02T04:20:00,0,20845690,204113
OK,134,25,788,134,2014-08-02T04:30:00,0,20846246,204113
OK,134,25,788,134,2014-08-02T04:35:00,0,20846613,204113
OK,134,25,788,134,2014-08-02T04:40:00,0,20846996,204113
OK,134,25,788,134,2014-08-02T04:45:00,0,20847255,204113
OK,134,25,788,134,2014-08-02T04:50:00,0,20847621,204113
OK,134,25,788,134,2014-08-02T05:00:00,0,20848326,204113
OK,145,23,788,145,2014-08-02T05:10:00,1,20848847,204113
OK,145,23,788,145,2014-08-02T05:20:00,0,20849392,204113
OK,189,17,788,189,2014-08-02T05:40:00,0,20850482,204113
OK,189,17,788,189,2014-08-02T05:50:00,0,20851141,204113
OK,189,17,788,189,2014-08-02T06:00:00,0,20851698,204113
OK,189,17,788,189,2014-08-02T06:05:00,0,20852147,204113
OK,189,17,788,189,2014-08-02T06:10:00,0,20852596,204113
OK,189,17,788,189,2014-08-02T06:15:00,0,20853045,204113
OK,139,24,788,139,2014-08-02T06:20:00,1,20853494,204113
OK,139,24,788,139,2014-08-02T06:25:00,1,20853943,204113
OK,139,24,788,139,2014-08-02T06:30:00,0,20854392,204113
OK,139,24,788,139,2014-08-02T06:35:00,0,20854841,204113
OK,139,24,788,139,2014-08-02T06:40:00,0,20855290,204113
OK,139,24,788,139,2014-08-02T06:45:00,0,20855739,204113
OK,155,21,788,155,2014-08-02T06:50:00,1,20856188,204113
OK,155,21,788,155,2014-08-02T06:55:00,1,20856637,204113
OK,155,21,788,155,2014-08-02T07:00:00,0,20857086,204113
OK,155,21,788,155,2014-08-02T07:05:00,0,20857535,204113
OK,196,17,788,196,2014-08-02T07:10:00,1,20857984,204113
OK,196,17,788,196,2014-08-02T07:15:00,1,20858433,204113
OK,196,17,788,196,2014-08-02T07:20:00,0,20858882,204113
OK,196,17,788,196,2014-08-02T07:25:00,0,20859331,204113
OK,156,21,788,156,2014-08-02T07:30:00,1,20859780,204113
OK,107,31,788,107,2014-08-02T07:35:00,3,20860229,204113
OK,106,32,788,106,2014-08-02T07:40:00,0,20860678,204113
OK,106,32,788,106,2014-08-02T07:45:00,0,20861127,204113
OK,106,32,788,106,2014-08-02T07:50:00,0,20861576,204113
OK,106,32,788,106,2014-08-02T07:55:00,0,20862025,204113
OK,106,32,788,106,2014-08-02T08:00:00,0,20862474,204113
OK,106,32,788,106,2014-08-02T08:05:00,0,20862923,204113
OK,191,17,788,191,2014-08-02T08:10:00,1,20863372,204113
OK,190,17,788,190,2014-08-02T08:15:00,2,20863821,204113
OK,175,19,788,175,2014-08-02T08:20:00,2,20864270,204113
OK,161,21,788,161,2014-08-02T08:25:00,1,20864719,204113
OK,167,20,788,167,2014-08-02T08:30:00,1,20865168,204113
OK,163,20,788,163,2014-08-02T08:35:00,2,20865617,204113
OK,160,21,788,160,2014-08-02T08:40:00,1,20866066,204113
OK,160,21,788,160,2014-08-02T08:45:00,0,20866515,204113
OK,160,21,788,160,2014-08-02T08:50:00,0,20866964,204113
OK,160,21,788,160,2014-08-02T08:55:00,0,20867413,204113
OK,160,21,788,160,2014-08-02T09:00:00,0,20867862,204113
OK,160,21,788,160,2014-08-02T09:05:00,0,20868311,204113
OK,160,21,788,160,2014-08-02T09:10:00,0,20868760,204113
OK,167,20,788,167,2014-08-02T09:15:00,3,20869209,204113
OK,174,19,788,174,2014-08-02T09:20:00,2,20869658,204113
OK,116,29,788,116,2014-08-02T09:25:00,1,20870107,204113
OK,132,25,788,132,2014-08-02T09:30:00,2,20870556,204113
OK,149,22,788,149,2014-08-02T09:35:00,1,20871005,204113
OK,149,22,788,149,2014-08-02T09:40:00,0,20871454,204113
OK,205,16,788,205,2014-08-02T09:45:00,1,20871903,204113
OK,155,21,788,155,2014-08-02T09:50:00,4,20872352,204113
OK,111,30,788,111,2014-08-02T09:55:00,3,20872801,204113
OK,180,18,788,180,2014-08-02T10:00:00,4,20873250,204113
OK,180,18,788,180,2014-08-02T10:05:00,7,20873699,204113
OK,151,22,788,151,2014-08-02T10:10:00,3,20874148,204113
OK,207,16,788,207,2014-08-02T10:15:00,2,20874597,204113
OK,155,21,788,155,2014-08-02T10:20:00,3,20875046,204113
OK,170,19,788,170,2014-08-02T10:25:00,2,20875495,204113
OK,224,15,788,224,2014-08-02T10:30:00,2,20875944,204113
OK,231,14,788,231,2014-08-02T10:35:00,1,20876393,204113
OK,231,14,788,231,2014-08-02T10:40:00,0,20876842,204113
OK,189,17,788,189,2014-08-02T10:45:00,4,20877291,204113
OK,189,17,788,189,2014-08-02T10:50:00,4,20877740,204113
OK,226,15,788,226,2014-08-02T10:55:00,3,20878189,204113
OK,204,16,788,204,2014-08-02T11:00:00,5,20878638,204113
OK,178,19,788,178,2014-08-02T11:05:00,1,20879087,204113
OK,178,19,788,178,2014-08-02T11:10:00,0,20879536,204113
OK,178,19,788,178,2014-08-02T11:15:00,0,20879985,204113
OK,140,24,788,140,2014-08-02T11:20:00,1,20880434,204113
OK,140,24,788,140,2014-08-02T11:25:00,1,20880883,204113
OK,267,12,788,267,2014-08-02T11:30:00,2,20881332,204113
OK,267,12,788,267,2014-08-02T11:35:00,2,20881781,204113
OK,163,20,788,163,2014-08-02T11:40:00,1,20882230,204113
OK,163,20,788,163,2014-08-02T11:45:00,1,20882679,204113
OK,163,20,788,163,2014-08-02T11:50:00,0,20883128,204113
OK,163,20,788,163,2014-08-02T11:55:00,0,20883577,204113
OK,163,20,788,163,2014-08-02T12:00:00,0,20884026,204113
OK,163,20,788,163,2014-08-02T12:05:00,0,20884475,204113
OK,163,20,788,163,2014-08-02T12:10:00,0,20884924,204113
OK,163,20,788,163,2014-08-02T12:15:00,0,20885373,204113
OK,163,20,788,163,2014-08-02T12:20:00,0,20885822,204113
OK,163,20,788,163,2014-08-02T12:25:00,0,20886271,204113
OK,126,26,788,126,2014-08-02T12:30:00,1,20886720,204113
OK,126,26,788,126,2014-08-02T12:35:00,1,20887169,204113
OK,146,23,788,146,2014-08-02T12:40:00,1,20887618,204113
OK,146,23,788,146,2014-08-02T12:45:00,3,20888067,204113
OK,138,24,788,138,2014-08-02T12:50:00,3,20888516,204113
OK,171,19,788,171,2014-08-02T12:55:00,1,20888965,204113
OK,171,19,788,171,2014-08-02T13:00:00,0,20889414,204113
OK,171,19,788,171,2014-08-02T13:05:00,0,20889863,204113
OK,171,19,788,171,2014-08-02T13:10:00,0,20890312,204113
OK,114,29,788,114,2014-08-02T13:15:00,2,20890761,204113
OK,114,29,788,114,2014-08-02T13:20:00,2,20891210,204113
OK,279,12,788,279,2014-08-02T13:25:00,1,20891659,204113
OK,265,12,788,265,2014-08-02T13:30:00,2,20892108,204113
OK,251,13,788,251,2014-08-02T13:35:00,1,20892557,204113
OK,251,13,788,251,2014-08-02T13:40:00,0,20893006,204113
OK,251,13,788,251,2014-08-02T13:45:00,0,20893455,204113
OK,158,21,788,158,2014-08-02T13:50:00,2,20893904,204113
OK,164,20,788,164,2014-08-02T13:55:00,2,20894353,204113
OK,154,22,788,154,2014-08-02T14:00:00,1,20894802,204113
OK,136,24,788,136,2014-08-02T14:05:00,1,20895251,204113
OK,136,24,788,136,2014-08-02T14:10:00,1,20895700,204113
OK,250,13,788,250,2014-08-02T14:15:00,1,20896149,204113
OK,250,13,788,250,2014-08-02T14:20:00,0,20896598,204113
OK,250,13,788,250,2014-08-02T14:25:00,0,20897047,204113
OK,118,28,788,118,2014-08-02T14:30:00,1,20897496,204113
OK,118,28,788,118,2014-08-02T14:35:00,3,20897945,204113
OK,134,25,788,134,2014-08-02T14:40:00,3,20898394,204113
OK,134,25,788,134,2014-08-02T14:45:00,1,20898843,204113
OK,157,21,788,157,2014-08-02T14:50:00,4,20899292,204113
OK,152,22,788,152,2014-08-02T14:55:00,1,20899741,204113
OK,152,22,788,152,2014-08-02T15:00:00,0,20900190,204113
OK,152,22,788,152,2014-08-02T15:05:00,0,20900639,204113
OK,127,26,788,127,2014-08-02T15:10:00,1,20901088,204113
OK,190,17,788,190,2014-08-02T15:15:00,1,20901537,204113
OK,190,17,788,190,2014-08-02T15:20:00,1,20901986,204113
OK,190,17,788,190,2014-08-02T15:25:00,0,20902435,204113
OK,190,17,788,190,2014-08-02T15:30:00,0,20902884,204113
OK,190,17,788,190,2014-08-02T15:35:00,0,20903333,204113
OK,222,15,788,222,2014-08-02T15:40:00,1,20903782,204113
OK,264,12,788,264,2014-08-02T15:45:00,1,20904231,204113
OK,219,15,788,219,2014-08-02T15:50:00,2,20904680,204113
OK,144,23,788,144,2014-08-02T15:55:00,5,20905129,204113
OK,124,27,788,124,2014-08-02T16:00:00,4,20905578,204113
OK,132,25,788,132,2014-08-02T16:05:00,1,20906027,204113
OK,132,25,788,132,2014-08-02T16:10:00,0,20906476,204113
OK,111,30,788,111,2014-08-02T16:15:00,1,20906925,204113
OK,169,20,788,169,2014-08-02T16:20:00,2,20907374,204113
OK,227,14,788,227,2014-08-02T16:25:00,1,20907823,204113
OK,146,23,788,146,2014-08-02T16:30:00,1,20908272,204113
OK,119,28,788,119,2014-08-02T16:35:00,2,20908721,204113
OK,119,28,788,119,2014-08-02T16:40:00,2,20909170,204113
OK,119,28,788,119,2014-08-02T16:45:00,0,20909619,204113
OK,119,28,788,119,2014-08-02T16:50:00,0,20910068,204113
OK,119,28,788,119,2014-08-02T16:55:00,0,20910517,204113
OK,100,33,788,100,2014-08-02T17:00:00,2,20910966,204113
OK,100,33,788,100,2014-08-02T17:05:00,2,20911415,204113
OK,92,36,788,92,2014-08-02T17:10:00,0,20911864,204113
OK,92,36,788,92,2014-08-02T17:15:00,0,20912313,204113
OK,112,30,788,112,2014-08-02T17:20:00,2,20912762,204113
OK,124,27,788,124,2014-08-02T17:25:00,1,20913211,204113
OK,124,27,788,124,2014-08-02T17:30:00,0,20913660,204113
OK,119,28,788,119,2014-08-02T17:35:00,1,20914109,204113
OK,119,28,788,119,2014-08-02T17:40:00,2,20914558,204113
OK,119,28,788,119,2014-08-02T17:45:00,1,20915007,204113
OK,119,28,788,119,2014-08-02T17:50:00,0,20915456,204113
OK,119,28,788,119,2014-08-02T17:55:00,0,20915905,204113
OK,119,28,788,119,2014-08-02T18:00:00,0,20916354,204113
OK,119,28,788,119,2014-08-02T18:05:00,0,20916803,204113
OK,119,28,788,119,2014-08-02T18:10:00,0,20917252,204113
OK,119,28,788,119,2014-08-02T18:15:00,0,20917701,204113
OK,119,28,788,119,2014-08-02T18:20:00,0,20918150,204113
OK,119,28,788,119,2014-08-02T18:25:00,0,20918599,204113
OK,119,28,788,119,2014-08-02T18:30:00,0,20919048,204113
OK,119,28,788,119,2014-08-02T18:35:00,0,20919497,204113
OK,119,28,788,119,2014-08-02T18:40:00,0,20919946,204113
OK,111,30,788,111,2014-08-02T18:45:00,1,20920395,204113
OK,111,30,788,111,2014-08-02T18:50:00,1,20920844,204113
OK,111,30,788,111,2014-08-02T18:55:00,0,20921293,204113
OK,111,30,788,111,2014-08-02T19:00:00,0,20921742,204113
OK,111,30,788,111,2014-08-02T19:05:00,0,20922191,204113
OK,111,30,788,111,2014-08-02T19:10:00,0,20922640,204113
OK,111,30,788,111,2014-08-02T19:15:00,0,20923089,204113
OK,133,25,788,133,2014-08-02T19:20:00,1,20923538,204113
OK,133,25,788,133,2014-08-02T19:25:00,1,20923987,204113
OK,133,25,788,133,2014-08-02T19:30:00,0,20924436,204113
OK,124,27,788,124,2014-08-02T19:35:00,1,20924885,204113
OK,124,27,788,124,2014-08-02T19:40:00,1,20925334,204113
OK,124,27,788,124,2014-08-02T19:45:00,0,20925783,204113
OK,124,27,788,124,2014-08-02T19:50:00,0,20926232,204113
OK,124,27,788,124,2014-08-02T19:55:00,0,20926681,204113
OK,124,27,788,124,2014-08-02T20:00:00,0,20927130,204113
OK,124,27,788,124,2014-08-02T20:05:00,0,20927579,204113
OK,124,27,788,124,2014-08-02T20:10:00,0,20928028,204113
OK,184,18,788,184,2014-08-02T20:15:00,1,20928477,204113
OK,184,18,788,184,2014-08-02T20:20:00,1,20928926,204113
OK,184,18,788,184,2014-08-02T20:25:00,0,20929375,204113
OK,184,18,788,184,2014-08-02T20:30:00,0,20929824,204113
OK,184,18,788,184,2014-08-02T20:35:00,0,20930273,204113
OK,184,18,788,184,2014-08-02T20:40:00,0,20930722,204113
OK,184,18,788,184,2014-08-02T20:45:00,0,20931171,204113
OK,184,18,788,184,2014-08-02T20:50:00,0,20931620,204113
OK,184,18,788,184,2014-08-02T20:55:00,0,20932069,204113
OK,184,18,788,184,2014-08-02T21:00:00,0,20932518,204113
OK,184,18,788,184,2014-08-02T21:05:00,0,20932967,204113
OK,184,18,788,184,2014-08-02T21:10:00,0,20933416,204113
OK,184,18,788,184,2014-08-02T21:15:00,0,20933865,204113
OK,184,18,788,184,2014-08-02T21:20:00,0,20934314,204113
OK,184,18,788,184,2014-08-02T21:25:00,0,20934763,204113
OK,184,18,788,184,2014-08-02T21:30:00,0,20935212,204113
OK,145,23,788,145,2014-08-02T21:35:00,1,20935661,204113
OK,145,23,788,145,2014-08-02T21:40:00,0,20936110,204113
OK,145,23,788,145,2014-08-02T21:45:00,0,20936559,204113
OK,145,23,788,145,2014-08-02T21:50:00,0,20937008,204113
OK,145,23,788,145,2014-08-02T21:55:00,0,20937457,204113
OK,145,23,788,145,2014-08-02T22:00:00,0,20937906,204113
OK,145,23,788,145,2014-08-02T22:05:00,0,20938355,204113
OK,188,18,788,188,2014-08-02T22:10:00,1,20938804,204113
OK,188,18,788,188,2014-08-02T22:15:00,0,20939253,204113
OK,188,18,788,188,2014-08-02T22:20:00,0,20939702,204113
OK,188,18,788,188,2014-08-02T22:25:00,0,20940151,204113
OK,188,18,788,188,2014-08-02T22:30:00,0,20940600,204113
OK,188,18,788,188,2014-08-02T22:35:00,0,20941049,204113
OK,188,18,788,188,2014-08-02T22:40:00,0,20941498,204113
OK,188,18,788,188,2014-08-02T22:45:00,0,20941947,204113
OK,188,18,788,188,2014-08-02T22:50:00,0,20942396,204113
OK,188,18,788,188,2014-08-02T22:55:00,0,20942845,204113
OK,188,18,788,188,2014-08-02T23:00:00,0,20943294,204113